| time (UTC) | temp F | wind direction | speed knots | gust knots | rain 1hr in | rain 24hr in | rain mn in | humidity % | barometer mb |
| 20260507015056 | 60 | 185 | 2.6 | 10.4 | 0.00 | 0.00 | 0.00 | 5 | 1014.1 |
| 20260507014056 | 59 | 225 | 7.8 | 12.2 | 0.00 | 0.00 | 0.00 | 5 | 1014.1 |
| 20260507013056 | 58 | 225 | 3.5 | 15.6 | 0.00 | 0.00 | 0.00 | 5 | 1014.2 |
| 20260507012056 | 58 | 265 | 7.0 | 13.9 | 0.00 | 0.00 | 0.00 | 5 | 1014.3 |
| 20260507011056 | 60 | 195 | 4.3 | 20.0 | 0.00 | 0.00 | 0.00 | 5 | 1014.5 |
| 20260507010056 | 62 | 229 | 7.8 | 8.7 | 0.00 | 0.00 | 0.00 | 5 | 1013.8 |
| 20260507005056 | 64 | 264 | 2.6 | 6.1 | 0.00 | 0.00 | 0.00 | 5 | 1013.8 |
| 20260507004056 | 62 | 242 | 8.7 | 8.7 | 0.00 | 0.00 | 0.00 | 6 | 1013.8 |
| 20260507003056 | 62 | 175 | 1.7 | 3.5 | 0.00 | 0.00 | 0.00 | 5 | 1013.8 |
| 20260507002056 | 63 | 241 | 5.2 | 5.2 | 0.00 | 0.00 | 0.00 | 5 | 1013.9 |
| 20260507001056 | 62 | 223 | 0.9 | 2.6 | 0.00 | 0.00 | 0.00 | 6 | 1013.8 |
| 20260507000056 | 62 | 293 | 0.9 | 8.7 | 0.00 | 0.00 | 0.00 | 5 | 1013.9 |
| 20260506235056 | 62 | 318 | 1.7 | 3.5 | 0.00 | 0.00 | 0.00 | 6 | 1013.9 |
| 20260506234056 | 61 | 254 | 1.7 | 6.1 | 0.00 | 0.00 | 0.00 | 6 | 1013.8 |
| 20260506233056 | 61 | 252 | 0.9 | 1.7 | 0.00 | 0.00 | 0.00 | 6 | 1013.8 |
| 20260506232056 | 61 | 301 | 1.7 | 1.7 | 0.00 | 0.00 | 0.00 | 6 | 1013.9 |
| 20260506231056 | 60 | 0 | 0.0 | 1.7 | 0.00 | 0.00 | 0.00 | 6 | 1013.8 |
| 20260506230056 | 60 | 264 | 3.5 | 13.9 | 0.00 | 0.00 | 0.00 | 6 | 1014.0 |
| 20260506225056 | 59 | 242 | 3.5 | 3.5 | 0.00 | 0.00 | 0.00 | 6 | 1013.9 |
| 20260506224056 | 59 | 266 | 1.7 | 1.7 | 0.00 | 0.00 | 0.00 | 6 | 1013.8 |
| 20260506223056 | 58 | 295 | 0.9 | 2.6 | 0.00 | 0.00 | 0.00 | 6 | 1013.8 |
| 20260506222056 | 57 | 240 | 1.7 | 3.5 | 0.00 | 0.00 | 0.00 | 7 | 1013.8 |
| 20260506221056 | 56 | 301 | 2.6 | 2.6 | 0.00 | 0.00 | 0.00 | 7 | 1013.9 |
| 20260506220056 | 55 | 302 | 2.6 | 2.6 | 0.00 | 0.00 | 0.00 | 7 | 1013.8 |
| 20260506215056 | 54 | 0 | 0.0 | 0.0 | 0.00 | 0.00 | 0.00 | 7 | 1013.7 |
| 20260506214056 | 53 | 0 | 0.0 | 2.6 | 0.00 | 0.00 | 0.00 | 7 | 1013.7 |
| 20260506213056 | 52 | 0 | 0.0 | 0.0 | 0.00 | 0.00 | 0.00 | 7 | 1013.6 |
| 20260506212056 | 52 | 0 | 0.0 | 0.0 | 0.00 | 0.00 | 0.00 | 7 | 1013.6 |
| 20260506211056 | 51 | 0 | 0.0 | 0.0 | 0.00 | 0.00 | 0.00 | 8 | 1013.7 |
| 20260506210056 | 50 | 0 | 0.0 | 0.0 | 0.00 | 0.00 | 0.00 | 8 | 1013.7 |
| 20260506205056 | 50 | 0 | 0.0 | 0.0 | 0.00 | 0.00 | 0.00 | 8 | 1013.6 |
| 20260506204056 | 51 | 0 | 0.0 | 2.6 | 0.00 | 0.00 | 0.00 | 8 | 1013.6 |
| 20260506203056 | 51 | 275 | 2.6 | 2.6 | 0.00 | 0.00 | 0.00 | 8 | 1013.6 |
| 20260506202056 | 51 | 0 | 0.0 | 0.0 | 0.00 | 0.00 | 0.00 | 8 | 1013.5 |
| 20260506201056 | 51 | 0 | 0.0 | 0.0 | 0.00 | 0.00 | 0.00 | 8 | 1013.6 |
| 20260506200056 | 51 | 0 | 0.0 | 0.0 | 0.00 | 0.00 | 0.00 | 8 | 1013.6 |
| 20260506195056 | 52 | 0 | 0.0 | 0.0 | 0.00 | 0.00 | 0.00 | 8 | 1013.7 |
| 20260506194055 | 52 | 0 | 0.0 | 0.0 | 0.00 | 0.00 | 0.00 | 8 | 1013.6 |
| 20260506193055 | 52 | 0 | 0.0 | 0.0 | 0.00 | 0.00 | 0.00 | 8 | 1013.5 |
| 20260506192055 | 52 | 0 | 0.0 | 0.0 | 0.00 | 0.00 | 0.00 | 8 | 1013.4 |
| 20260506191055 | 52 | 0 | 0.0 | 1.7 | 0.00 | 0.00 | 0.00 | 8 | 1013.3 |
| 20260506190055 | 52 | 0 | 0.0 | 0.0 | 0.00 | 0.00 | 0.00 | 8 | 1013.1 |
| 20260506185055 | 52 | 0 | 0.0 | 0.0 | 0.00 | 0.00 | 0.00 | 8 | 1012.9 |
| 20260506184055 | 52 | 0 | 0.0 | 0.0 | 0.00 | 0.00 | 0.00 | 8 | 1013.0 |
| 20260506183055 | 53 | 0 | 0.0 | 0.0 | 0.00 | 0.00 | 0.00 | 8 | 1013.0 |
| 20260506182055 | 53 | 0 | 0.0 | 0.0 | 0.00 | 0.00 | 0.00 | 8 | 1013.1 |
| 20260506181055 | 54 | 0 | 0.0 | 0.0 | 0.00 | 0.00 | 0.00 | 8 | 1012.9 |
| 20260506180055 | 54 | 272 | 0.9 | 3.5 | 0.00 | 0.00 | 0.00 | 8 | 1012.8 |
| 20260506175055 | 55 | 0 | 0.0 | 2.6 | 0.00 | 0.00 | 0.00 | 8 | 1012.8 |
| 20260506174055 | 54 | 303 | 1.7 | 3.5 | 0.00 | 0.00 | 0.00 | 8 | 1012.9 |
| 20260506173055 | 54 | 253 | 1.7 | 2.6 | 0.00 | 0.00 | 0.00 | 8 | 1013.1 |
| 20260506172055 | 54 | 250 | 2.6 | 3.5 | 0.00 | 0.00 | 0.00 | 8 | 1013.2 |
| 20260506171055 | 54 | 0 | 0.0 | 0.0 | 0.00 | 0.00 | 0.00 | 8 | 1013.0 |
| 20260506170055 | 55 | 0 | 0.0 | 0.0 | 0.00 | 0.00 | 0.00 | 8 | 1013.1 |
| 20260506165055 | 55 | 0 | 0.0 | 0.9 | 0.00 | 0.00 | 0.00 | 8 | 1013.2 |
| 20260506164055 | 56 | 0 | 0.0 | 0.0 | 0.00 | 0.00 | 0.00 | 8 | 1013.4 |
| 20260506163055 | 57 | 0 | 0.0 | 2.6 | 0.00 | 0.00 | 0.00 | 8 | 1013.4 |
| 20260506162055 | 57 | 0 | 0.0 | 2.6 | 0.00 | 0.00 | 0.00 | 8 | 1013.6 |
| 20260506161055 | 57 | 0 | 0.0 | 2.6 | 0.00 | 0.00 | 0.00 | 8 | 1013.7 |
| 20260506160055 | 57 | 249 | 0.9 | 1.7 | 0.00 | 0.00 | 0.00 | 8 | 1013.8 |
| 20260506155055 | 57 | 249 | 0.9 | 3.5 | 0.00 | 0.00 | 0.00 | 8 | 1013.8 |
| 20260506154055 | 58 | 264 | 1.7 | 3.5 | 0.00 | 0.00 | 0.00 | 8 | 1014.0 |
| 20260506153055 | 58 | 234 | 2.6 | 4.3 | 0.00 | 0.00 | 0.00 | 8 | 1014.0 |
| 20260506152055 | 58 | 272 | 3.5 | 4.3 | 0.00 | 0.00 | 0.00 | 8 | 1014.1 |
| 20260506151054 | 59 | 228 | 2.6 | 2.6 | 0.00 | 0.00 | 0.00 | 8 | 1014.1 |
| 20260506150054 | 59 | 243 | 3.5 | 4.3 | 0.00 | 0.00 | 0.00 | 8 | 1014.2 |
| 20260506145054 | 59 | 229 | 1.7 | 2.6 | 0.00 | 0.00 | 0.00 | 8 | 1014.2 |
| 20260506144053 | 59 | 0 | 0.0 | 0.0 | 0.00 | 0.00 | 0.00 | 8 | 1014.2 |
| 20260506143052 | 59 | 0 | 0.0 | 1.7 | 0.00 | 0.00 | 0.00 | 8 | 1014.4 |
| 20260506142052 | 60 | 210 | 2.6 | 2.6 | 0.00 | 0.00 | 0.00 | 8 | 1014.4 |
| 20260506141052 | 59 | 219 | 1.7 | 1.7 | 0.00 | 0.00 | 0.00 | 8 | 1014.3 |
| 20260506140052 | 59 | 228 | 1.7 | 1.7 | 0.00 | 0.00 | 0.00 | 8 | 1014.4 |
| 20260506135052 | 59 | 231 | 0.9 | 0.9 | 0.00 | 0.00 | 0.00 | 8 | 1014.4 |
| 20260506134052 | 59 | 0 | 0.0 | 1.7 | 0.00 | 0.00 | 0.00 | 8 | 1014.5 |
| 20260506133052 | 59 | 201 | 2.6 | 7.0 | 0.00 | 0.00 | 0.00 | 8 | 1014.6 |
| 20260506132052 | 59 | 238 | 1.7 | 1.7 | 0.00 | 0.00 | 0.00 | 8 | 1014.6 |
| 20260506131052 | 59 | 248 | 0.9 | 1.7 | 0.00 | 0.00 | 0.00 | 8 | 1014.8 |
| 20260506130052 | 58 | 289 | 2.6 | 3.5 | 0.00 | 0.00 | 0.00 | 8 | 1014.9 |
| 20260506125052 | 58 | 0 | 0.0 | 0.0 | 0.00 | 0.00 | 0.00 | 8 | 1015.0 |
| 20260506124052 | 58 | 0 | 0.0 | 0.0 | 0.00 | 0.00 | 0.00 | 8 | 1015.0 |
| 20260506123052 | 59 | 0 | 0.0 | 0.0 | 0.00 | 0.00 | 0.00 | 8 | 1015.3 |
| 20260506122052 | 59 | 0 | 0.0 | 0.0 | 0.00 | 0.00 | 0.00 | 8 | 1015.4 |
| 20260506121051 | 60 | 304 | 0.9 | 1.7 | 0.00 | 0.00 | 0.00 | 8 | 1015.6 |
| 20260506120050 | 60 | 0 | 0.0 | 0.0 | 0.00 | 0.00 | 0.00 | 8 | 1015.7 |
| 20260506115050 | 61 | 0 | 0.0 | 0.0 | 0.00 | 0.00 | 0.00 | 8 | 1015.9 |
| 20260506114050 | 61 | 0 | 0.0 | 0.0 | 0.00 | 0.00 | 0.00 | 8 | 1015.9 |
| 20260506113049 | 61 | 0 | 0.0 | 0.0 | 0.00 | 0.00 | 0.00 | 8 | 1015.9 |
| 20260506112049 | 61 | 304 | 1.7 | 1.7 | 0.00 | 0.00 | 0.00 | 8 | 1016.1 |
| 20260506111049 | 61 | 304 | 0.9 | 2.6 | 0.00 | 0.00 | 0.00 | 8 | 1016.2 |
| 20260506110049 | 61 | 305 | 1.7 | 2.6 | 0.00 | 0.00 | 0.00 | 8 | 1016.2 |
| 20260506105049 | 61 | 306 | 1.7 | 2.6 | 0.00 | 0.00 | 0.00 | 8 | 1016.2 |
| 20260506104049 | 61 | 307 | 1.7 | 3.5 | 0.00 | 0.00 | 0.00 | 8 | 1016.2 |
| 20260506103049 | 62 | 308 | 2.6 | 3.5 | 0.00 | 0.00 | 0.00 | 8 | 1016.1 |
| 20260506102049 | 62 | 310 | 1.7 | 2.6 | 0.00 | 0.00 | 0.00 | 8 | 1016.2 |
| 20260506101049 | 62 | 317 | 1.7 | 2.6 | 0.00 | 0.00 | 0.00 | 8 | 1016.3 |
| 20260506100049 | 63 | 320 | 1.7 | 3.5 | 0.00 | 0.00 | 0.00 | 8 | 1016.3 |
| 20260506095049 | 63 | 333 | 2.6 | 2.6 | 0.00 | 0.00 | 0.00 | 8 | 1016.2 |
| 20260506094049 | 63 | 339 | 0.9 | 3.5 | 0.00 | 0.00 | 0.00 | 8 | 1016.2 |
| 20260506093048 | 63 | 343 | 3.5 | 3.5 | 0.00 | 0.00 | 0.00 | 8 | 1016.3 |
| 20260506092048 | 63 | 11 | 1.7 | 1.7 | 0.00 | 0.00 | 0.00 | 8 | 1016.4 |
| 20260506091048 | 63 | 0 | 0.0 | 0.0 | 0.00 | 0.00 | 0.00 | 8 | 1016.3 |
| 20260506090048 | 63 | 0 | 0.0 | 0.0 | 0.00 | 0.00 | 0.00 | 8 | 1016.4 |
| 20260506085048 | 63 | 0 | 0.0 | 0.0 | 0.00 | 0.00 | 0.00 | 8 | 1016.4 |
| 20260506084048 | 63 | 0 | 0.0 | 0.0 | 0.00 | 0.00 | 0.00 | 8 | 1016.4 |
| 20260506083048 | 63 | 0 | 0.0 | 0.0 | 0.00 | 0.00 | 0.00 | 8 | 1016.4 |
| 20260506082048 | 63 | 0 | 0.0 | 0.0 | 0.00 | 0.00 | 0.00 | 8 | 1016.4 |
| 20260506081048 | 62 | 0 | 0.0 | 0.0 | 0.00 | 0.00 | 0.00 | 8 | 1016.3 |
| 20260506073048 | 63 | 0 | 0.0 | 0.0 | 0.00 | 0.00 | 0.00 | 8 | 1016.3 |
| 20260506072048 | 63 | 0 | 0.0 | 0.0 | 0.00 | 0.00 | 0.00 | 8 | 1016.2 |
| 20260506071048 | 63 | 0 | 0.0 | 0.0 | 0.00 | 0.00 | 0.00 | 8 | 1016.2 |
| 20260506062048 | 65 | 0 | 0.0 | 0.9 | 0.00 | 0.00 | 0.00 | 7 | 1016.5 |
| 20260506061048 | 66 | 116 | 0.9 | 1.7 | 0.00 | 0.00 | 0.00 | 7 | 1016.5 |
| 20260506051048 | 68 | 74 | 1.7 | 3.5 | 0.00 | 0.00 | 0.00 | 7 | 1016.7 |
| 20260506045047 | 68 | 120 | 1.7 | 2.6 | 0.00 | 0.00 | 0.00 | 7 | 1017.1 |
| 20260506044047 | 68 | 118 | 3.5 | 4.3 | 0.00 | 0.00 | 0.00 | 6 | 1017.1 |
| 20260506043047 | 69 | 77 | 1.7 | 5.2 | 0.00 | 0.00 | 0.00 | 6 | 1017.1 |
| 20260506042047 | 69 | 122 | 1.7 | 3.5 | 0.00 | 0.00 | 0.00 | 6 | 1017.1 |
| 20260506041047 | 70 | 102 | 6.1 | 7.0 | 0.00 | 0.00 | 0.00 | 6 | 1017.1 |
| 20260506040047 | 69 | 105 | 0.9 | 3.5 | 0.00 | 0.00 | 0.00 | 6 | 1017.2 |
| 20260506035047 | 70 | 108 | 4.3 | 4.3 | 0.00 | 0.00 | 0.00 | 6 | 1017.4 |
| 20260506034047 | 70 | 102 | 3.5 | 6.1 | 0.00 | 0.00 | 0.00 | 6 | 1017.4 |
| 20260506033047 | 69 | 27 | 2.6 | 3.5 | 0.00 | 0.00 | 0.00 | 6 | 1017.5 |
| 20260506032047 | 70 | 122 | 4.3 | 4.3 | 0.00 | 0.00 | 0.00 | 6 | 1017.6 |
| 20260506031047 | 70 | 127 | 1.7 | 2.6 | 0.00 | 0.00 | 0.00 | 6 | 1017.8 |
| 20260506030047 | 69 | 0 | 0.0 | 2.6 | 0.00 | 0.00 | 0.00 | 6 | 1018.0 |
| 20260506025047 | 69 | 175 | 1.7 | 3.5 | 0.00 | 0.00 | 0.00 | 6 | 1018.2 |
| 20260506024047 | 69 | 158 | 1.7 | 3.5 | 0.00 | 0.00 | 0.00 | 6 | 1018.5 |
| 20260506023046 | 68 | 167 | 3.5 | 3.5 | 0.00 | 0.00 | 0.00 | 6 | 1018.6 |
| 20260506022046 | 69 | 162 | 0.9 | 3.5 | 0.00 | 0.00 | 0.00 | 6 | 1018.7 |
| 20260506021046 | 68 | 195 | 2.6 | 2.6 | 0.00 | 0.00 | 0.00 | 6 | 1018.8 |
| 20260506020046 | 67 | 0 | 0.0 | 0.9 | 0.00 | 0.00 | 0.00 | 6 | 1019.2 |